Regional Weather Roundup
Issued by NWS

Home | Current Version | Previous Version | Graphics & Text | Print | Product List | Glossary On
Versions: 1 2 3 4 5 6 7 8 9 10 11 12 13 14 15 16 17 18 19 20 21 22 23 24 25 26 27 28 29 30 31 32 33 34 35 36 37 38 39 40 41 42 43 44 45 46 47 48 49 50
872
ASUS43 KFSD 262102
RWRSD

WEATHER ROUNDUP FOR SOUTH DAKOTA
NATIONAL WEATHER SERVICE SIOUX FALLS SD
400 PM CDT THU MAY 26 2016

NOTE: "FAIR" INDICATES FEW OR NO CLOUDS BELOW 12,000 FEET WITH NO
SIGNIFICANT WEATHER AND/OR OBSTRUCTIONS TO VISIBILITY.


SDZ001>005-009-010-012>017-262200-
NORTHWEST AND NORTH CENTRAL SOUTH DAKOTA

CITY           SKY/WX    TMP DP  RH WIND       PRES   REMARKS
BUFFALO          N/A     69  40  34 W20G25    29.79F
FAITH            N/A     69  40  34 W10       29.82F
MOBRIDGE       SUNNY     75  53  46 S14G20    29.77F
$$

SDZ012>016-024>037-041>051-057-063-072>074-262200-
SOUTHWEST AND SOUTH CENTRAL SOUTH DAKOTA

CITY           SKY/WX    TMP DP  RH WIND       PRES   REMARKS
RAPID CTY ARPT CLOUDY    65  46  50 N16       29.86F
PIERRE         PTSUNNY   75  54  47 S3        29.78F
CUSTER         CLOUDY    63  31  30 VRB5G18   29.92F
ELLSWORTH AFB  TSTM      63  48  59 N12       29.86
PHILIP         SUNNY     73  48  41 NW8       29.81F
PINE RIDGE     MOSUNNY   72  44  36 NW9       29.84F
WINNER         FAIR      76  50  40 SW3       29.80F
$$

SDZ004>011-016>023-039-040-262200-
NORTHEAST SOUTH DAKOTA

CITY           SKY/WX    TMP DP  RH WIND       PRES   REMARKS
ABERDEEN       MOSUNNY   77  51  40 SW13G21   29.80F
WATERTOWN      CLOUDY    74  50  42 NW7       29.84F
BROOKINGS      PTSUNNY   74  49  41 W5        29.84F
SISSETON         N/A     77  49  37 W14G25    29.79F
$$

SDZ017-020-022-023-036>040-048>070-262200-
SOUTHEAST SOUTH DAKOTA

CITY           SKY/WX    TMP DP  RH WIND       PRES   REMARKS
SIOUX FALLS    CLOUDY    75  54  47 SE3       29.82F
HURON          SUNNY     76  52  43 SE6       29.81F
MITCHELL       CLOUDY    74  53  48 E3        29.82F
YANKTON        MOSUNNY   73  55  53 NE7       29.81S
$$

ABBREVIATIONS USED IN REMARKS
   TC - TEMPERATURE IN CELSIUS
  WCI - WIND CHILL INDEX
   HX - HEAT INDEX
  VSB - VISIBILITY





USA.gov is the U.S. government's official web portal to all federal, state and local government web resources and services.